This is the latest recevied weather packets stored in our database for station/object DM4XI-13. If no packets are shown the sender has not sent any weather packets the latest 10 day(s).
| Time | Temp. | Humidity | Pressure | Rain* | Wind** | Luminosity | Snow |
|---|---|---|---|---|---|---|---|
| 1777389568 | 20.56° C | 29% | 1015.9 hPa | 0 mm | 0.45 m/s, 174° | 277 W/m² | - |
| 1777389507 | 20.56° C | 30% | 1015.6 hPa | 0 mm | 1.34 m/s, 150° | 278 W/m² | - |
| 1777389446 | 20.56° C | 29% | 1015.7 hPa | 0 mm | 0.45 m/s, 188° | 280 W/m² | - |
| 1777389385 | 20.56° C | 29% | 1015.9 hPa | 0 mm | 1.79 m/s, 42° | 283 W/m² | - |
| 1777389324 | 20.56° C | 29% | 1015.7 hPa | 0 mm | 0.89 m/s, 309° | 286 W/m² | - |
| 1777389263 | 20.56° C | 29% | 1015.8 hPa | 0 mm | 0.89 m/s, 117° | 287 W/m² | - |
| 1777389202 | 20° C | 29% | 1015.6 hPa | 0 mm | 0.45 m/s, 41° | 288 W/m² | - |
| 1777389141 | 20° C | 30% | 1015.7 hPa | 0 mm | 0.89 m/s, 304° | 290 W/m² | - |
| 1777389080 | 20° C | 29% | 1015.7 hPa | 0 mm | 1.79 m/s, 143° | 292 W/m² | - |
| 1777389019 | 20° C | 29% | 1015.7 hPa | 0 mm | 1.79 m/s, 326° | 294 W/m² | - |
| 1777388958 | 20° C | 30% | 1015.8 hPa | 0 mm | 0.89 m/s, 342° | 296 W/m² | - |
| 1777388897 | 20° C | 30% | 1015.8 hPa | 0 mm | 0.89 m/s, 168° | 298 W/m² | - |
| 1777388836 | 20° C | 29% | 1016 hPa | 0 mm | 1.79 m/s, 107° | 301 W/m² | - |
| 1777388775 | 20° C | 30% | 1015.9 hPa | 0 mm | 1.34 m/s, 145° | 305 W/m² | - |
| 1777388715 | 20° C | 29% | 1015.7 hPa | 0 mm | 0.89 m/s, 159° | 306 W/m² | - |
| 1777388654 | 20° C | 30% | 1015.9 hPa | 0 mm | 0.45 m/s, 167° | 309 W/m² | - |
| 1777388593 | 20° C | 29% | 1015.9 hPa | 0 mm | 0.89 m/s, 160° | 309 W/m² | - |
| 1777388532 | 20° C | 30% | 1015.9 hPa | 0 mm | 0.89 m/s, 62° | 312 W/m² | - |
| 1777388471 | 20° C | 29% | 1016 hPa | 0 mm | 1.79 m/s, 158° | 315 W/m² | - |
| 1777388410 | 20.56° C | 28% | 1016.1 hPa | 0 mm | 2.24 m/s, 36° | 317 W/m² | - |
| 1777388349 | 20.56° C | 28% | 1015.9 hPa | 0 mm | 1.34 m/s, 52° | 319 W/m² | - |
| 1777388288 | 20.56° C | 29% | 1015.9 hPa | 0 mm | 1.79 m/s, 98° | 321 W/m² | - |
| 1777388227 | 20.56° C | 29% | 1015.9 hPa | 0 mm | 0.89 m/s, 150° | 323 W/m² | - |
| 1777388166 | 20.56° C | 29% | 1015.8 hPa | 0 mm | 0.45 m/s, 192° | 326 W/m² | - |
| 1777388105 | 20.56° C | 29% | 1015.9 hPa | 0 mm | 0.89 m/s, 221° | 328 W/m² | - |
* Rain latest hour (hover to see other rain measurements)
** Current wind speed in m/s (hover to see current wind gust speed)